User: anonymous   Login
Location: ???????
(55.4362°N, 38.1183°E)
Time: 02:09:11
(UTC+00:00)
Language:

NOSS 3-1 (C) - Orbit

View from above orbital plane
View from above orbital plane
View from above satellite
View from above satellite

Ground track
Ground track

The orbit data is extracted from the following two-line orbital elements,

1 26907U 01040C   21263.16026196 0.00000000  00000-0  00000-0 0    07
2 26907  63.3883   6.2647 0516011   3.3327 356.6673 13.41333123    04
Epoch (UTC): 20 September 2021 03:50:46
Eccentricity: 0.0516011
inclination: 63.3883°
perigee height: 718 km
apogee height: 1490 km
right ascension of ascending node: 6.2647°
argument of perigee: 3.3327°
revolutions per day: 13.41333123
mean anomaly at epoch: 356.6673°
orbit number at epoch: 0

The dashed part of the orbit path shows where the satellite is in the earth's shadow,  

DLR